Regional Weather Roundup
Issued by NWS

Home | Current Version | Previous Version | Text Only | Print | Product List | Glossary Off
Versions: 1 2 3 4 5 6 7 8 9 10 11 12 13 14 15 16 17 18 19 20 21 22 23 24 25 26 27 28 29 30 31 32 33 34 35 36 37 38 39 40 41 42 43 44 45 46 47 48 49 50

000
ASUS43 KIND 210309
RWRIN

WEATHER ROUNDUP FOR INDIANA
NATIONAL WEATHER SERVICE INDIANAPOLIS IN
1100 PM EDT MON OCT 20 2014

NOTE: "FAIR" INDICATES FEW OR NO CLOUDS BELOW 12,000 FEET WITH NO
SIGNIFICANT WEATHER AND/OR OBSTRUCTIONS TO VISIBILITY.

* - STATION DOES NOT REPORT WEATHER SUCH AS PRECIPITATION OR FOG.

+ - STATION NOT QUALITY CONTROLLED BY THE NATIONAL WEATHER SERVICE.
    USE DATA WITH CAUTION...ESPECIALLY DEWPOINT AND RELATIVE
    HUMIDITY OBSERVATIONS.

INZ001>003-010>013-019-020-210400-
NORTHWEST INDIANA

CITY           SKY/WX    TMP DP  RH WIND       PRES   REMARKS
GARY /AIRPORT/ CLOUDY    55  45  68 N8        29.99S
KNOX *+        CLOUDY    50  46  84 NW3       29.97R
LA PORTE +     CLOUDY    52  48  85 N7        29.98R
MICHIGAN CITY+ CLOUDY    52  43  71 N12G17    29.98S
MONTICELLO +   MOCLDY    50  47  92 N3        29.97R
RENSSELAER +   MOCLDY    52  50  93 N3        29.98S
VALPARAISO     CLOUDY    52  44  74 N7        29.98R

$$

LMZ046-743>745-210400-
SOUTHERN LAKE MICHIGAN

STATION/POSITION TIME  TEMP WIND        PRES
                       AIR  DIR/SP/G
                 (UTC) (F)  (DEG/KT/KT) (MB)
MICHIGAN CITY    0300   53  340/ 19/ 22   N/A

$$

INZ004-005-014>016-021>024-210400-
NORTH CENTRAL INDIANA

CITY           SKY/WX    TMP DP  RH WIND       PRES   REMARKS
GOSHEN         CLOUDY    52  44  74 NW12      29.94R
LOGANSPORT +   CLEAR     48  45  87 NW3       29.97R
PERU/GRISSOM   PTCLDY    51  51 100 N6        29.95R
ROCHESTER +    PTCLDY    52  46  82 CALM      29.95S
SOUTH BEND     CLOUDY    52  46  80 N7        29.97R
WARSAW +       CLOUDY    50  45  81 N7        29.94S

$$

INZ006>009-017-018-025>027-210400-
NORTHEAST INDIANA

CITY           SKY/WX    TMP DP  RH WIND       PRES   REMARKS
ANGOLA *+      CLOUDY    52  46  82 NW7       29.92R
AUBURN +       CLOUDY    52  45  76 NW7       29.92R
FORT WAYNE     CLOUDY    53  47  79 NW9       29.93R
HUNTINGTON +   CLOUDY    52  47  83 NW8       29.93S

$$

INZ028-029-035-036-043>045-051>053-210400-
WEST CENTRAL INDIANA

CITY           SKY/WX    TMP DP  RH WIND       PRES   REMARKS
GREENCASTLE +  FAIR      55  45  67 N9        29.97R
LAFAYETTE      PTCLDY    50  46  86 N5        29.97R
TERRE HAUTE    PTCLDY    55  44  66 NW3       29.97R

$$

INZ030>032-037>040-046>048-054>057-064-065-210400-
CENTRAL INDIANA

CITY           SKY/WX    TMP DP  RH WIND       PRES   REMARKS
CP ATTERBURY + CLEAR     55  45  67 NW8       29.93S
FRANKFORT +      N/A     50  47  87 NW6       29.98R FOG
INDIANAPOLIS   PTCLDY    56  46  69 N13       29.95R
-EAGLE CREEK   CLEAR     56  47  71 N8        29.95R
KOKOMO *+      PTCLDY    52  45  76 N7        29.96R
MARION +       CLOUDY    52  48  86 N5        29.95R
MT COMFORT *+  MOCLDY    55  43  62 NW10      29.95R
SHELBYVILLE    MOCLDY    57  47  69 N12       29.93R
ZIONSVILLE +   MOCLDY    54  46  73 N9        29.96R

$$

INZ033-034-041-042-049-050-058-059-210400-
EAST CENTRAL INDIANA

CITY           SKY/WX    TMP DP  RH WIND       PRES   REMARKS
MUNCIE         LGT RAIN  54  48  80 NW10      29.93R

$$

INZ060-061-067>069-081>083-085>088-210400-
SOUTHWEST INDIANA

CITY           SKY/WX    TMP DP  RH WIND       PRES   REMARKS
EVANSVILLE     CLEAR     60  44  55 NW5       29.99R
HUNTINGBURG *+ CLEAR     55  45  67 N7        29.97R
WASHINGTON +   CLEAR     57  46  65 NW7       29.97R

$$

INZ062-063-066-070>080-084-089>092-210400-
SOUTH CENTRAL AND SOUTHEAST INDIANA

CITY           SKY/WX    TMP DP  RH WIND       PRES   REMARKS
BLOOMINGTON    CLEAR     55  45  68 NW5       29.95R
SEYMOUR +      CLEAR     52  46  82 W6        29.93

$$



USA.gov is the U.S. government's official web portal to all federal, state and local government web resources and services.